Historyczne dane pomiarowe

Dodano dane terminowe – wersja testowa.

Dane z okresu 1951-2019

Wersja bazy: 1.34 [2019-03-16, lista zmian], aktualizacja planowana na 2019-04-15

Dane meteo z obszaru Polski uzyskane na podstawie danych udostępnionych przez Instytut Meteorologii i Gospodarki Wodnej – Państwowy Instytut Badawczy.

 

Wybierz Datę:    

       

TemperaturaWilgotnośćWiatrCiśnienieOpadyŚniegCzas trwania zjawisk
 Stacja t tx tn tng RH VA  wxwx mslp ppp RRR   cm mm wxwxwxwxwxwxwx
2019-06-13 21.9 28.7 17.6 17.2-- 5.3----- 0.0------------
2019-06-12 27.0 33.6 19.1 16.7-- 0.3----- 0.0------------
2019-06-11 26.5 33.8 18.3 17.7-- 1.0----- 0.0------------
2019-06-10 23.7 30.8 16.1 15.3-- 1.7----- 0.0------------
2019-06-09 17.5 26.7 5.5 4.0-- 1.0----- 0.0------------
2019-06-08 19.6 23.9 14.1 11.9-- 4.7----- 0.0------------
2019-06-07 20.3 24.2 16.7 16.7-- 3.7----- 0.0------------
2019-06-06 22.7 29.8 15.6 13.4-- 3.0----- 0.0------------
2019-06-05 24.1 30.4 16.6 13.4-- 1.0----- 0.0------------
2019-06-04 23.6 30.3 14.8 11.1-- 0.0----- 0.0------------
2019-06-03 23.1 30.4 13.6 10.5-- 0.0----- 0.0------------
2019-06-02 21.3 29.1 11.6 9.8-- 0.3----- 0.0------------
2019-06-01 20.3 27.1 12.2 11.4-- 1.0----- 0.0------------
2019-05-31 17.3 23.7 9.4 7.0-- 5.0----- 0.0------------
2019-05-30 13.0 19.8 2.4 0.2-- 0.0----- 0.0------------
2019-05-29 12.5 16.5 8.0 6.5-- 3.3----- 0.0------------
2019-05-28 15.8 21.5 12.5 10.4-- 8.0----- 1.7------------
2019-05-27 18.7 24.3 11.9 10.5-- 5.3----- 4.0------------
2019-05-26 15.6 22.5 7.4 5.0-- 4.0----- 0.0------------
2019-05-25 15.2 20.5 9.5 7.6-- 0.0----- 0.0------------
2019-05-24 13.2 21.0 3.2 1.7-- 0.3----- 0.0------------
2019-05-23 13.5 16.4 10.6 10.5-- 6.7----- 0.0------------
2019-05-22 14.5 17.7 12.2 12.6-- 8.0----- 3.1------------
2019-05-21 17.1 24.0 10.0 6.5-- 4.3----- 12.2------------
2019-05-20 17.3 22.3 11.5 10.0-- 2.7----- 0.1------------
2019-05-19 16.7 24.3 9.5 7.0-- 3.7----- 0.0------------
2019-05-18 16.2 23.5 8.1 6.5-- 0.7----- 0.0------------
2019-05-17 12.4 18.1 5.1 4.5-- 5.7----- 0.1------------
2019-05-16 10.8 13.5 7.6 7.7-- 7.7----- 0.9------------
2019-05-15 7.9 11.0 4.2 4.0-- 8.0----- 7.8------------
2019-05-14 8.3 13.5 3.0 0.5-- 4.3----- 3.5------------
2019-05-13 9.7 14.3 5.6 3.5-- 4.7----- 0.1------------
2019-05-12 9.6 14.6 5.8 4.6-- 7.3----- 5.1------------
2019-05-11 10.5 16.2 3.1 1.4-- 7.7----- 4.2------------
2019-05-10 10.1 16.9 2.3 1.3-- 4.3----- 0.6------------
2019-05-09 11.8 14.3 9.3 8.4-- 6.3----- 3.7------------
2019-05-08 8.4 17.0 -1.4 -4.0-- 3.3----- 0.2------------
2019-05-07 7.7 13.0 0.3 -2.8-- 6.0----- 0.0------------
2019-05-06 6.6 13.4 -1.8 -3.0-- 3.7----- 0.0------------
2019-05-05 7.2 12.8 1.1 -0.6-- 1.3----- 0.0------------
2019-05-04 5.9 9.5 3.2 3.0-- 7.0----- 8.1------------
2019-05-03 9.1 13.0 6.6 4.0-- 4.0----- 0.0------------
2019-05-02 10.8 16.2 6.4 4.0-- 2.7----- 0.7------------
2019-05-01 12.4 19.2 4.3 0.5-- 4.3----- 0.0------------
2019-04-30 12.7 19.9 5.8 3.9-- 0.0----- 0.0------------
2019-04-29 14.3 20.2 9.1 8.7-- 4.3----- 0.1------------
2019-04-28 11.0 14.8 6.2 4.0-- 6.7----- 3.3------------
2019-04-27 15.1 22.9 11.3 9.5-- 8.0----- 0.0------------
2019-04-26 19.9 28.6 11.8 8.5-- 1.3----- 0.0------------
2019-04-25 17.8 25.7 8.5 5.0-- 0.0----- 0.0------------
2019-04-24 15.5 20.9 11.2 10.5-- 4.7----- 0.1------------
2019-04-23 13.3 19.8 7.1 5.0-- 2.0----- 0.0------------
2019-04-22 10.7 17.4 2.7 1.0-- 1.3----- 0.0------------
2019-04-21 11.1 19.8 0.3 -2.2-- 0.0----- 0.0------------
2019-04-20 10.3 20.0 -2.5 -2.2-- 1.0----- 0.0------------
2019-04-19 12.5 21.2 4.1 1.0-- 0.0----- 0.0------------
2019-04-18 11.6 21.2 2.3 -1.0-- 0.0----- 0.0------------
2019-04-17 11.3 19.2 2.9 0.8-- 0.7----- 0.0------------
2019-04-16 6.9 15.5 0.2 -3.0-- 0.0----- 0.0------------
2019-04-15 5.9 13.2 -0.3 -2.0-- 0.0----- 0.0------------
229.3 ms

 

Źródłem pochodzenia danych jest Instytut Meteorologii i Gospodarki Wodnej – Państwowy Instytut Badawczy. Dane Instytutu Meteorologii i Gospodarki Wodnej – Państwowego Instytutu Badawczego zostały przetworzone.

Dane źródłowe można odnaleźć na stronie https://dane.imgw.pl